GEFSSE_con_prob3kmehi_210.txt.gz
EHI
0 1 1 1 1 1 2 4 5 4 4 4 5 6 6 3 2 2 1 0 1 0 0 0 0 0 0 1 1 1 1 0 0 0 0 0 0 0 0 0 0 0 0
1 2 2 2 2 2 4 5 6 5 5 5 5 6 5 3 2 1 1 0 1 0 0 0 0 0 0 2 2 2 1 1 0 0 0 0 0 0 0 0 0 0 0
2 3 3 4 5 4 5 5 5 5 6 5 5 5 4 3 2 1 1 0 0 0 0 1 0 0 1 2 3 3 2 1 0 0 0 0 0 0 0 0 0 0 0
3 3 4 5 6 5 4 4 4 3 4 4 4 3 3 2 2 2 2 1 0 0 0 0 0 1 2 3 3 2 1 0 0 0 0 0 0 0 0 0 0 0 0
2 2 4 5 6 5 4 4 3 2 2 2 2 1 1 1 1 2 2 1 0 0 0 0 0 1 2 3 2 2 1 0 0 0 0 0 0 0 0 0 0 0 0
1 1 2 4 4 3 3 2 2 2 1 1 1 0 0 0 1 2 3 1 0 0 0 0 0 0 1 2 1 1 1 0 0 0 0 0 0 0 0 0 0 0 0
0 0 1 2 3 3 1 1 1 1 0 0 0 0 0 0 0 1 3 2 0 0 0 0 0 0 0 0 0 0 0 0 0 0 0 0 0 0 0 0 0 0 0
0 0 0 1 3 3 1 0 0 0 0 0 0 0 0 0 0 0 1 1 0 0 0 0 0 0 0 0 0 0 0 0 0 0 0 0 0 0 0 0 0 0 0
0 0 0 1 2 2 1 0 0 0 0 0 0 0 0 0 0 0 0 0 0 0 0 0 0 0 0 0 0 0 0 0 0 0 0 0 0 0 0 0 0 0 0
0 0 0 0 1 1 1 0 0 0 0 0 0 1 0 0 0 0 0 0 0 0 0 0 0 0 0 0 0 0 0 0 0 0 0 0 0 0 0 0 0 0 0
0 0 0 0 0 0 0 0 0 0 0 0 1 2 1 0 0 0 0 0 0 1 1 0 0 0 0 0 0 0 0 0 0 0 0 0 0 0 0 0 0 0 0
0 0 0 0 0 0 0 1 0 0 0 0 0 1 0 0 0 0 0 0 0 1 1 0 0 0 0 0 0 0 0 0 0 0 0 0 0 0 0 1 1 0 1
0 0 0 0 0 0 0 0 0 0 0 0 0 0 0 0 0 0 0 0 0 1 1 0 0 0 0 0 0 0 0 0 0 0 0 0 0 0 1 2 2 1 1
0 0 0 0 0 0 0 0 0 0 0 0 0 0 0 0 0 0 0 0 0 0 0 0 0 0 0 0 0 0 0 0 0 0 0 0 0 0 1 2 3 2 1
0 0 0 0 0 0 0 0 0 0 0 0 0 0 0 0 0 0 0 0 0 0 0 0 0 0 0 0 0 0 0 0 0 0 0 0 0 0 1 2 2 2 1
0 0 1 1 0 0 0 0 0 0 0 0 0 0 0 0 0 0 0 0 0 0 0 0 0 0 0 0 0 0 0 0 0 0 0 0 1 2 2 2 2 2 1
0 1 2 1 0 0 0 0 0 0 0 0 0 0 0 0 0 0 0 0 0 0 0 0 0 0 0 0 0 0 0 0 0 0 0 0 1 2 4 4 4 4 4
0 1 2 2 1 1 0 0 0 0 0 0 0 0 0 0 0 0 0 0 0 0 0 0 0 0 0 0 0 0 0 0 0 0 0 0 0 1 3 3 4 5 5
2 2 2 2 2 1 0 0 0 0 0 0 0 0 0 0 0 0 0 0 0 0 0 0 0 0 0 0 0 0 0 0 0 0 0 0 0 0 1 1 2 2 2
3 2 2 1 1 1 0 0 0 0 0 0 0 0 0 0 0 0 0 0 0 0 0 0 0 0 0 0 0 0 0 0 0 0 0 0 0 0 0 0 0 0 0
4 3 2 1 1 1 1 0 0 0 0 0 0 0 0 1 1 0 0 0 0 0 0 0 0 0 0 0 0 0 0 0 0 0 0 0 0 0 0 0 0 0 0
6 6 4 2 3 3 3 2 1 0 0 0 0 0 1 2 2 1 0 0 0 0 0 0 0 0 0 0 0 0 0 0 0 0 0 0 0 0 0 0 0 0 0
8 8 7 5 6 7 7 7 4 2 2 2 1 1 1 2 3 2 1 0 0 0 0 0 0 0 0 0 0 0 0 0 0 0 0 0 0 0 0 0 0 0 0
10 10 10 10 9 8 9 10 9 6 5 4 4 2 2 3 3 3 1 1 2 1 0 0 0 0 0 0 0 0 0 0 0 0 0 0 0 0 0 0 0 0 0
14 14 14 14 11 8 8 11 11 8 6 5 4 4 4 5 4 4 3 3 3 2 1 0 0 0 0 0 0 0 0 0 0 0 0 0 0 0 0 0 0 0 0
18 17 17 15 10 7 8 10 10 9 7 5 4 5 6 6 6 5 5 5 4 3 2 1 0 0 0 0 0 0 0 0 0 0 0 0 0 0 0 0 0 0 0

GEFSSE_con_prob3kmehi_216.txt.gz
EHI
0 1 2 1 0 0 0 0 1 1 1 1 1 0 0 0 0 1 3 4 3 2 3 4 4 3 2 2 3 2 1 0 0 0 0 0 0 0 0 0 0 0 0
1 2 2 1 0 0 0 0 0 0 0 0 0 0 1 1 0 1 3 3 2 2 2 2 3 2 1 1 2 2 0 0 0 0 0 0 0 0 0 0 0 0 0
1 2 3 1 0 0 0 0 0 0 0 0 0 0 1 2 1 0 1 2 1 1 1 0 1 1 0 1 2 2 1 0 0 0 0 0 0 0 0 0 0 0 0
1 2 3 2 1 0 0 0 0 0 0 0 0 0 1 2 1 0 0 0 0 0 0 0 0 0 0 1 2 3 2 1 0 0 0 0 0 0 0 0 0 0 0
0 1 3 2 1 0 0 0 0 0 0 0 0 0 1 1 1 0 0 0 0 0 0 0 0 0 0 1 2 3 2 1 0 0 0 0 0 0 0 0 0 0 0
0 1 2 2 1 0 0 0 0 1 0 0 0 0 0 0 0 0 0 0 0 0 0 0 0 0 0 1 2 2 2 1 1 0 0 0 0 0 0 0 0 0 0
0 1 2 1 0 0 0 1 1 1 0 0 0 0 0 0 0 0 0 0 0 0 0 0 0 0 0 0 1 1 2 2 1 0 0 0 0 0 0 0 0 0 0
0 1 1 1 0 0 0 1 2 1 0 0 0 0 0 1 1 1 0 0 0 0 0 0 0 0 0 0 0 1 2 2 1 0 0 0 0 0 0 0 0 0 0
0 0 0 0 0 0 0 1 2 2 1 0 0 0 1 2 2 1 0 0 0 0 0 0 0 0 0 0 0 1 1 1 0 0 0 0 0 0 0 0 0 0 0
0 0 0 0 0 0 0 1 2 2 1 0 0 0 1 2 2 1 0 0 0 0 0 0 0 0 0 0 0 1 1 0 0 0 0 0 0 0 0 0 0 0 0
0 0 0 0 0 0 0 1 2 2 1 0 0 1 1 1 1 0 0 0 0 0 0 0 0 0 0 0 1 1 0 0 0 0 0 0 0 0 0 0 0 0 0
0 0 0 0 0 0 0 1 2 3 2 1 1 2 2 1 2 1 1 0 0 0 0 0 0 0 0 0 1 1 0 0 0 0 0 0 0 0 0 0 0 0 0
0 0 0 0 1 1 0 1 2 3 3 2 1 1 1 2 3 3 2 1 0 0 0 0 0 0 0 0 1 1 0 0 0 0 0 1 1 0 0 0 0 0 0
0 0 0 1 2 2 1 0 1 1 2 2 1 0 0 1 2 2 2 1 0 0 0 0 0 0 0 0 0 0 0 0 0 0 1 2 2 1 0 0 0 0 1
0 0 1 1 3 3 2 1 0 0 1 1 0 0 0 0 1 1 1 0 0 0 0 0 0 0 0 0 0 0 0 0 0 0 1 3 4 2 1 0 0 1 2
0 1 2 3 3 3 3 2 1 0 0 0 0 0 0 0 0 0 0 0 0 0 0 0 0 0 0 0 0 0 0 0 0 0 0 2 3 3 2 1 0 1 2
0 1 2 3 3 3 3 2 1 0 0 0 0 0 0 0 0 0 0 0 0 0 0 0 0 0 0 0 0 0 0 0 0 0 0 0 1 2 3 3 2 1 1
1 2 3 3 3 3 3 2 1 0 0 0 0 0 0 0 0 0 0 0 0 0 0 0 0 0 0 0 0 0 0 0 0 0 0 0 0 1 2 5 5 4 2
3 3 4 3 3 3 3 1 1 1 0 0 0 0 0 0 0 0 0 0 1 1 0 0 0 0 0 0 0 0 0 0 0 0 0 0 0 0 1 4 6 5 5
5 6 7 6 5 4 3 1 0 0 0 0 0 0 0 1 1 1 0 1 2 2 1 1 1 1 1 0 0 0 0 0 0 0 0 0 0 0 0 2 3 4 6
7 9 10 10 9 8 6 3 0 0 0 0 0 0 2 3 4 4 3 3 4 3 2 2 2 1 1 0 0 0 0 0 0 0 0 0 0 0 0 1 2 2 3
10 11 13 15 15 14 11 6 3 2 2 2 2 2 4 6 6 7 7 6 6 5 3 4 4 3 1 0 0 0 0 0 0 0 0 0 0 0 0 1 2 1 1
12 13 15 20 23 21 16 10 7 7 6 5 5 5 5 6 8 9 9 9 8 7 5 5 6 4 3 2 2 1 0 0 0 0 0 1 1 0 0 0 0 1 1
13 14 19 27 31 28 22 15 11 9 6 5 5 4 4 5 8 9 10 10 9 8 7 7 7 6 5 4 4 2 2 2 2 1 1 1 1 0 0 0 1 1 2
12 14 22 32 37 35 29 21 15 10 6 5 5 5 5 6 8 10 10 10 11 11 10 10 10 10 8 7 6 4 4 5 4 2 1 1 1 1 1 1 2 3 3
11 13 22 33 38 39 33 23 17 12 8 7 7 6 7 8 10 11 11 11 12 12 12 12 13 14 11 9 7 5 5 6 4 2 1 0 1 2 2 1 3 4 3

GEFSSE_con_prob3kmehi_222.txt.gz
EHI
4 4 5 5 5 5 3 1 1 1 1 0 1 2 2 1 3 4 4 2 2 3 3 3 4 5 7 7 6 4 4 4 5 6 4 1 0 0 0 1 2 4 5
4 4 4 4 4 4 3 2 1 2 1 0 1 1 1 1 3 4 3 1 1 1 2 3 4 6 7 5 4 4 4 4 4 4 2 0 0 0 0 1 3 4 4
4 4 4 4 3 3 3 2 1 1 0 0 1 0 0 1 3 4 2 1 1 0 1 2 4 5 6 5 4 4 4 3 2 1 0 0 0 0 0 2 4 5 4
4 3 4 5 4 3 2 1 0 0 0 0 0 0 0 0 1 2 2 1 0 0 0 1 3 4 5 5 4 3 3 2 1 0 0 0 0 0 1 2 3 3 2
4 4 6 6 4 2 1 0 0 0 0 0 0 0 0 0 0 1 1 0 0 0 0 1 3 4 4 4 3 3 3 1 1 1 1 0 0 0 1 2 1 1 0
4 5 7 6 4 1 0 0 0 0 0 0 0 0 0 0 0 0 0 0 0 0 1 2 3 3 3 2 3 3 2 2 2 2 1 0 0 0 1 1 0 0 0
4 5 5 5 3 1 0 1 1 1 0 0 0 0 0 0 0 0 0 0 0 0 2 2 2 1 1 1 2 3 3 3 4 2 1 1 1 0 1 1 1 0 0
4 4 5 5 3 1 0 0 1 1 0 0 0 0 0 1 0 0 0 0 0 0 1 2 1 0 0 1 2 3 4 4 4 2 2 2 2 1 1 2 2 1 0
4 5 5 5 4 1 0 0 1 1 0 0 0 0 0 0 0 0 0 1 1 1 1 1 1 0 0 1 2 3 5 5 3 1 1 3 4 3 2 4 3 1 0
4 4 5 6 4 1 1 2 2 1 0 0 1 1 1 1 1 0 0 1 2 2 2 1 0 0 0 1 2 3 4 4 2 1 1 4 6 4 2 4 4 2 0
3 3 4 5 3 2 2 5 5 3 2 2 3 4 4 3 2 1 1 2 3 3 2 1 0 0 0 1 3 4 3 2 2 1 3 8 10 6 2 2 3 2 1
3 3 3 4 4 4 5 7 7 6 6 5 4 4 3 3 2 1 1 3 3 3 3 1 1 0 0 2 3 4 2 1 1 3 8 14 14 9 4 3 3 3 2
5 4 3 4 6 7 8 7 7 8 9 7 6 4 2 1 2 2 2 3 3 3 3 3 2 2 2 2 4 4 3 1 1 4 11 18 18 13 10 7 6 4 4
9 8 6 7 9 11 11 9 7 8 7 6 7 5 2 0 1 2 3 3 2 3 3 3 3 3 3 3 4 5 4 2 1 4 13 23 23 19 16 13 10 8 7
16 14 12 13 14 15 14 11 8 7 6 5 6 5 2 1 1 2 2 2 2 2 4 4 3 3 3 3 4 5 3 1 1 3 12 23 27 24 21 17 13 11 10
22 21 18 16 17 15 12 10 8 7 7 6 7 6 4 3 3 4 3 2 3 4 5 4 3 3 3 3 4 3 1 0 1 3 9 17 23 24 21 17 14 13 11
28 28 23 16 15 14 10 8 7 7 9 9 10 10 7 5 5 4 3 3 4 5 6 5 3 3 2 2 2 1 0 1 3 4 6 10 15 19 19 17 15 13 12
38 37 28 19 18 16 12 9 7 7 9 11 13 14 11 7 5 5 4 4 4 6 6 5 3 4 4 3 3 2 1 3 5 6 6 9 12 15 16 15 14 14 14
48 44 34 26 24 19 14 12 10 8 8 9 11 15 14 9 6 5 6 7 6 6 7 6 5 7 7 5 3 2 1 3 6 5 5 9 13 16 16 14 14 15 16
52 49 41 34 30 24 18 16 14 10 7 7 10 16 18 13 9 7 9 11 10 9 9 8 8 10 8 5 3 1 1 2 4 5 5 8 12 17 20 19 17 16 17
59 56 49 41 36 29 23 19 17 14 9 8 13 21 23 17 13 11 12 14 14 12 10 8 8 9 8 5 3 2 1 1 2 4 7 10 11 15 21 25 25 21 18
70 65 57 49 44 35 26 19 18 17 14 13 19 27 28 21 15 14 14 13 14 15 13 9 8 8 7 6 4 3 2 2 2 4 9 12 12 14 18 23 28 28 25
76 70 63 60 55 43 32 22 19 22 23 25 30 34 32 25 19 17 15 13 13 17 17 13 10 8 8 8 7 6 5 4 4 4 6 10 13 14 15 16 22 28 30
73 70 68 68 63 52 40 30 25 26 29 35 40 39 34 28 23 21 18 14 14 16 18 17 14 12 11 11 11 10 9 8 7 5 4 7 11 14 13 12 15 23 27
67 68 71 72 67 58 46 36 30 27 28 35 40 39 35 30 26 25 23 19 15 15 15 17 18 17 16 16 16 15 14 13 10 7 5 6 9 11 12 12 12 17 21
65 65 71 73 68 59 48 38 32 27 27 33 38 38 35 32 30 29 28 22 17 14 14 16 20 22 22 21 20 18 17 16 13 9 7 6 7 9 13 14 12 13 18

GEFSSE_con_prob3kmehi_228.txt.gz
EHI
2 4 7 9 9 9 10 9 7 7 9 8 6 6 8 11 13 12 10 8 6 5 4 1 0 0 0 0 2 3 3 2 1 0 0 1 2 4 6 6 4 3 3
3 5 7 8 8 9 10 9 8 7 7 6 5 6 7 9 9 8 7 6 5 3 2 1 0 0 0 0 2 4 5 4 2 0 0 1 2 3 4 5 3 2 2
4 4 6 6 7 8 9 9 8 6 5 4 4 5 5 5 4 3 2 3 3 2 0 0 0 0 0 0 2 4 5 5 3 1 0 1 1 1 2 3 2 1 1
3 3 4 5 6 7 8 8 6 4 4 4 3 4 4 3 3 1 1 2 2 1 0 0 0 0 0 1 2 3 4 4 3 1 0 0 0 0 1 1 1 0 0
3 3 5 6 6 6 6 6 5 3 3 4 3 3 3 2 2 1 0 1 2 1 1 1 0 0 1 2 3 3 3 3 1 0 0 0 0 0 0 0 0 0 0
3 4 5 6 6 5 4 4 4 3 4 3 2 2 1 1 1 0 0 1 1 0 1 1 1 1 1 3 3 3 3 2 1 0 0 0 0 1 1 1 0 0 0
2 3 5 6 6 4 3 2 2 3 2 1 1 1 0 0 0 0 0 0 0 0 0 1 1 1 2 3 3 3 3 2 1 0 0 0 1 2 3 2 1 0 0
1 1 3 5 5 3 1 1 1 1 1 0 0 0 0 0 0 0 0 0 0 0 0 0 0 1 2 2 3 3 2 1 0 0 0 0 0 1 2 2 1 0 0
1 0 1 3 3 2 1 0 0 1 1 0 0 0 0 0 0 0 0 0 0 0 0 0 0 0 1 1 1 2 1 0 0 0 0 0 0 0 1 2 2 1 0
2 1 0 1 1 1 0 0 0 2 2 1 1 1 0 0 0 0 0 0 0 0 0 0 0 0 0 0 0 1 0 0 0 0 0 0 0 0 1 3 4 2 0
2 1 0 0 0 0 0 0 0 1 3 2 2 2 1 0 0 0 0 0 0 0 0 0 0 0 0 0 0 1 0 0 0 0 0 1 2 2 4 7 8 4 2
2 1 0 0 0 0 0 0 0 0 1 1 1 1 1 0 0 0 0 0 0 0 0 0 0 0 0 0 0 0 0 0 0 0 1 3 5 7 7 8 8 6 4
3 2 0 0 0 0 0 0 0 0 0 0 0 0 0 0 0 0 0 0 0 0 0 0 0 0 0 0 0 0 0 0 0 0 2 5 8 10 10 9 8 6 5
3 2 0 0 0 0 0 0 0 0 0 0 0 0 0 0 0 0 0 0 0 0 0 0 0 0 0 0 0 0 0 0 0 0 2 7 11 12 11 10 8 6 5
5 3 1 1 0 0 0 0 0 0 0 0 0 0 1 1 0 0 0 0 0 0 0 0 0 0 0 0 0 0 0 0 0 0 2 7 12 13 12 10 9 6 5
7 5 4 3 2 0 0 0 0 0 0 0 0 1 2 2 1 0 0 0 0 0 0 0 0 0 0 0 0 0 0 0 0 0 1 4 9 12 12 12 9 7 6
8 7 7 8 5 1 0 0 0 0 0 0 1 2 3 3 2 2 1 0 0 0 0 0 0 0 0 0 0 0 0 0 0 0 0 1 4 7 11 12 10 8 7
9 9 10 11 7 2 0 0 0 0 0 0 1 2 3 4 4 4 3 1 1 1 1 1 0 0 0 0 0 0 0 0 0 0 0 0 0 2 6 9 11 10 9
11 10 11 12 8 2 0 0 0 0 0 0 0 1 3 5 6 6 4 3 2 2 2 2 1 0 0 0 0 0 0 0 0 0 0 0 0 0 1 4 8 10 11
17 15 14 14 9 3 1 1 0 0 1 1 0 1 3 5 6 6 4 3 3 3 3 3 2 1 1 0 0 0 0 0 0 0 0 0 0 0 0 1 3 6 8
27 23 20 19 13 7 4 2 1 0 1 2 1 1 3 5 6 7 5 4 2 1 2 3 3 2 1 0 0 0 0 0 0 0 0 0 0 0 0 0 1 2 3
34 30 26 23 19 13 7 3 1 0 1 2 2 2 4 6 7 8 8 5 2 1 1 1 2 3 2 0 0 0 0 0 0 0 0 0 0 0 0 1 2 2 1
37 35 31 27 23 19 13 8 6 4 3 3 3 4 6 8 10 10 9 7 3 1 0 0 1 3 2 1 0 0 0 0 0 0 0 0 0 0 0 1 2 2 2
38 37 34 31 27 24 20 17 15 12 9 6 4 5 7 9 11 11 10 8 6 3 2 1 1 2 3 3 1 0 0 0 0 0 0 0 0 0 0 0 1 2 2
40 39 37 35 32 28 25 23 21 18 14 11 7 7 8 9 11 11 11 10 9 7 6 4 3 3 4 4 2 1 0 0 0 0 0 0 0 0 0 0 1 2 2
41 42 40 37 35 31 27 23 21 19 16 14 11 9 9 9 10 11 11 10 10 9 9 8 7 5 5 5 4 2 1 1 0 0 0 0 0 0 0 0 1 3 3

GEFSSE_con_prob3kmehi_234.txt.gz
EHI
0 1 3 4 5 6 8 10 11 13 13 11 10 11 11 11 9 6 4 3 2 2 2 2 2 2 2 2 1 2 2 2 1 0 0 0 1 2 3 3 2 1 0
0 1 3 4 5 7 9 9 10 11 11 9 8 8 10 10 8 5 3 1 1 1 1 1 2 3 3 2 1 1 1 1 0 0 0 0 1 2 3 2 1 0 1
0 1 2 4 7 9 11 10 11 10 9 7 5 6 7 6 5 3 1 0 0 0 0 0 1 3 3 1 0 0 0 0 0 0 0 0 1 2 2 1 0 1 1
0 0 2 4 7 9 10 11 12 11 9 6 4 4 5 4 2 1 1 0 0 0 0 0 0 1 1 0 0 1 0 0 0 0 0 0 1 1 1 0 0 1 1
0 0 1 3 6 7 8 9 10 11 10 7 5 5 4 4 4 2 1 1 1 1 0 0 0 0 0 0 0 0 0 0 0 0 0 0 0 0 0 0 0 0 0
1 0 0 2 4 6 6 7 9 9 8 5 4 5 4 5 6 4 1 2 3 3 1 0 1 1 1 1 0 0 0 0 0 0 0 0 0 1 1 0 0 0 0
2 1 1 3 6 6 5 7 8 7 5 3 3 3 4 4 4 3 1 2 4 4 3 2 3 2 2 2 1 1 0 0 0 0 0 0 0 1 1 0 0 0 0
2 1 1 4 6 6 5 5 6 4 3 2 1 2 3 2 1 1 1 2 4 3 3 3 4 3 2 3 3 2 1 0 0 0 0 0 0 1 1 0 0 0 0
2 1 0 2 4 4 3 3 2 2 1 1 1 2 2 1 0 0 0 1 1 1 1 1 2 3 3 3 3 2 1 0 0 0 0 0 0 0 0 0 0 0 1
1 0 0 0 1 2 2 2 1 0 0 0 0 1 1 0 0 0 0 0 0 0 1 1 1 2 3 3 3 2 1 0 0 0 0 0 0 0 0 1 1 1 2
0 0 0 0 0 0 1 1 0 0 0 0 0 0 0 0 0 0 0 0 0 1 2 2 2 2 1 2 2 1 0 0 0 0 0 0 0 0 1 2 2 3 3
0 0 0 0 0 0 0 0 0 0 0 0 1 1 0 0 0 0 0 0 1 1 2 2 2 1 0 0 0 0 0 0 0 0 0 0 0 1 2 3 3 3 3
1 2 1 0 0 0 0 0 0 0 1 1 1 1 0 0 0 0 0 0 0 0 1 1 1 0 0 0 0 0 0 0 0 0 0 0 1 2 3 3 4 3 3
3 3 2 1 0 0 0 0 0 0 0 0 1 1 0 0 0 0 0 0 0 0 0 0 0 0 0 0 0 0 0 0 0 0 0 0 1 1 2 3 5 4 4
3 3 2 1 0 0 0 0 0 0 0 0 0 0 0 0 0 0 0 0 0 0 0 0 0 0 0 0 0 0 0 0 0 0 0 0 0 0 1 3 5 6 5
3 3 2 1 0 0 0 0 0 0 0 0 0 0 0 0 0 0 0 0 0 0 0 0 0 0 0 0 0 0 0 0 0 0 0 0 0 0 1 3 5 6 7
3 3 1 0 0 0 0 0 0 0 0 0 0 0 0 0 0 0 0 0 0 0 0 0 0 0 0 0 0 0 0 0 0 0 0 0 0 0 2 4 5 5 5
4 3 2 1 0 0 0 0 0 0 0 0 0 0 0 0 0 0 0 0 0 0 0 0 0 0 0 0 0 0 0 0 0 0 0 0 0 0 1 3 5 4 3
6 5 5 4 2 1 1 0 0 0 0 0 0 0 0 0 0 0 0 0 0 0 0 0 0 0 0 0 0 0 0 0 0 0 0 0 0 0 0 1 3 3 2
6 6 6 5 3 2 1 0 0 0 0 0 0 0 0 0 0 0 0 0 0 0 0 0 0 0 0 0 0 0 0 0 0 0 0 0 0 0 0 0 1 1 1
6 6 6 5 4 3 2 0 0 0 0 0 0 0 0 0 0 0 0 0 0 0 0 0 0 0 0 0 0 0 0 0 0 0 0 0 0 0 0 0 0 0 1
7 7 7 6 5 3 2 1 0 0 0 0 0 0 0 0 0 0 0 0 0 0 0 0 0 0 0 0 0 1 1 0 0 0 0 0 0 0 0 1 1 2 2
9 7 6 6 5 4 3 2 1 2 1 1 0 0 0 0 0 1 0 0 0 0 0 0 0 0 0 0 0 1 2 1 0 0 0 0 0 0 1 2 3 3 2
10 8 6 5 5 6 6 6 6 5 3 2 0 0 0 0 0 1 0 0 0 0 0 0 0 0 1 1 1 2 2 1 0 0 0 0 0 0 1 2 2 1 1
12 10 8 8 9 10 11 12 11 8 4 1 0 0 0 0 0 1 0 0 0 0 0 1 1 1 2 2 3 3 2 2 1 0 0 1 0 0 0 0 0 0 0
13 13 13 12 12 12 14 15 13 10 5 2 1 0 0 0 0 1 0 0 0 0 1 2 2 2 3 3 4 4 4 4 3 1 0 1 0 0 0 0 0 0 0

GEFSSE_con_prob3kmehi_240.txt.gz
EHI
0 2 4 5 4 4 5 5 5 5 5 3 1 0 0 0 1 2 2 2 3 2 2 2 3 4 5 4 3 2 1 0 0 0 0 1 2 2 2 2 1 0 0
0 1 4 4 4 5 5 5 5 5 4 2 1 0 0 0 2 2 2 2 2 1 1 2 3 3 3 3 3 2 1 0 0 0 0 0 1 1 1 2 2 1 0
0 1 2 4 5 6 7 7 7 4 2 1 1 0 0 0 2 3 1 1 1 0 0 1 2 2 2 3 3 2 1 0 0 0 0 0 0 1 2 3 3 2 1
0 0 1 2 3 5 8 9 8 5 1 1 1 1 0 0 1 2 1 0 0 0 0 1 1 1 1 3 3 2 1 0 0 0 0 0 0 1 2 3 2 1 0
0 0 1 1 2 3 7 9 8 4 1 2 2 2 1 2 1 1 0 0 0 0 0 0 0 1 2 3 3 1 0 0 0 0 0 0 0 1 2 2 1 0 0
0 0 1 1 1 3 5 7 6 4 2 2 3 3 3 4 3 1 0 0 1 1 1 1 1 2 3 3 2 1 0 0 0 0 0 0 0 0 1 1 1 1 0
0 0 1 1 1 2 4 5 4 2 2 3 4 4 4 4 3 1 0 0 1 2 2 1 2 3 3 3 1 0 0 0 0 0 0 0 0 0 0 1 1 1 1
0 1 1 1 0 1 3 3 2 1 2 3 4 4 4 4 2 1 0 0 1 1 1 1 2 3 3 2 1 0 0 0 0 0 0 0 0 0 0 0 1 1 1
0 1 1 1 0 0 1 1 1 1 1 3 4 3 3 3 1 0 0 0 0 0 0 1 2 3 3 2 1 0 0 0 0 0 0 0 0 0 0 0 1 2 2
0 0 0 0 0 0 0 1 1 0 1 1 2 2 2 1 0 0 0 0 0 0 0 1 2 3 2 1 1 1 0 0 0 0 0 0 0 0 0 1 2 3 3
0 0 0 0 0 0 0 0 0 0 0 0 1 1 1 0 0 0 0 0 0 0 0 1 2 1 1 1 1 1 0 0 0 0 0 0 0 0 0 1 2 3 3
1 0 0 0 0 0 0 1 1 1 1 0 0 0 1 1 1 0 0 0 0 0 0 1 1 0 0 0 1 1 0 0 0 0 0 0 0 0 0 1 2 3 3
2 1 0 0 0 0 1 2 3 3 3 1 1 2 3 3 2 1 0 0 0 0 0 0 0 0 0 0 0 0 0 0 0 0 1 2 1 0 0 1 2 3 3
2 1 1 0 1 1 2 3 2 2 2 1 2 3 4 4 3 2 1 1 0 0 0 0 0 0 0 0 0 0 0 0 0 0 1 3 4 2 1 0 1 2 2
1 2 2 2 2 3 4 4 2 2 1 1 2 4 4 3 2 1 2 1 0 0 0 0 0 0 0 0 0 0 0 0 0 0 1 4 6 5 2 0 0 1 1
2 3 3 4 3 3 3 4 3 3 2 1 2 3 3 3 1 0 1 1 0 0 0 0 0 0 0 0 0 0 0 0 0 0 0 3 6 7 4 2 1 1 0
3 3 4 4 4 3 2 2 3 4 4 4 4 3 2 2 2 1 1 0 0 1 1 0 0 0 0 0 0 0 0 0 0 0 0 1 4 5 5 4 3 3 2
5 6 6 6 5 5 3 3 5 7 8 7 6 4 1 1 1 2 2 1 1 2 1 0 0 0 0 0 0 0 0 0 0 0 0 1 2 3 4 5 4 3 3
8 11 12 11 9 8 6 4 4 7 8 7 6 3 1 0 0 1 2 3 2 2 1 0 0 0 0 0 0 0 0 0 0 0 0 0 1 2 3 4 3 3 3
10 15 19 18 15 13 8 4 3 4 4 5 4 3 1 0 0 1 2 3 2 1 0 0 0 0 1 0 0 0 0 0 0 0 0 0 0 1 2 2 2 3 4
10 15 21 23 21 18 13 7 4 2 3 3 3 2 0 0 0 0 2 2 1 0 0 0 0 0 0 0 0 0 0 0 0 0 1 1 0 0 1 1 1 2 4
12 14 18 22 23 21 17 12 7 3 2 2 2 2 1 1 0 0 1 2 1 0 0 0 0 0 0 0 1 1 1 0 0 1 2 2 1 1 1 1 2 3 4
11 11 14 18 21 21 19 14 9 6 4 3 3 3 3 2 1 0 1 1 0 0 0 0 0 0 0 0 2 2 1 0 1 2 3 2 1 2 2 2 2 4 6
10 11 13 16 18 18 17 15 12 9 7 5 4 4 4 3 3 2 1 2 1 1 0 0 1 2 2 2 2 3 2 2 2 3 3 2 1 2 3 3 3 4 7
11 13 15 17 17 17 17 17 16 13 9 7 6 5 4 4 4 4 4 5 5 3 1 1 2 4 4 4 3 4 4 4 5 5 4 3 2 2 3 3 3 5 6
13 14 16 19 19 19 18 19 19 15 9 7 7 5 4 4 4 5 6 7 7 4 2 2 3 4 4 4 4 4 5 6 7 6 5 4 3 2 2 2 2 4 5

GEFSSE_con_prob3kmehi_246.txt.gz
EHI
13 12 14 13 8 4 6 9 6 2 0 0 1 3 3 3 3 3 4 5 3 1 1 3 5 4 3 4 5 7 8 6 2 2 3 5 5 5 6 6 5 4 3
14 12 14 13 8 4 7 9 6 2 1 1 2 3 3 2 1 2 3 3 2 1 2 3 4 4 3 3 4 6 7 4 1 1 2 3 3 3 5 7 5 3 2
12 11 12 12 8 5 8 9 6 2 1 1 2 3 3 2 1 0 1 1 0 1 1 2 3 3 4 3 4 4 4 2 0 0 0 1 1 2 5 7 6 3 2
11 11 13 14 11 8 9 8 5 3 1 1 2 3 4 3 1 0 0 0 0 0 1 2 3 3 4 4 4 4 2 1 0 0 0 0 0 1 3 6 5 3 2
11 13 16 16 13 11 9 7 5 3 3 2 2 3 4 3 1 1 0 0 0 1 2 3 3 3 4 3 3 3 1 1 1 1 0 0 0 1 2 3 3 3 2
11 13 16 16 14 10 8 6 5 5 4 3 3 3 3 2 1 1 1 1 0 1 3 3 2 3 3 2 1 1 2 2 3 1 1 2 2 2 2 1 1 1 1
11 12 13 14 12 9 6 5 5 5 5 4 3 3 3 3 1 1 0 0 0 1 2 2 1 1 2 1 0 0 2 4 3 1 1 3 5 5 3 1 1 0 0
10 9 10 11 9 6 5 3 4 5 4 3 3 3 3 2 2 1 0 0 0 1 1 1 1 1 0 0 0 0 2 4 3 1 1 4 7 8 5 2 1 0 0
6 6 7 7 6 4 3 3 3 4 4 3 3 3 2 1 1 1 0 0 1 1 0 0 0 0 0 0 0 1 2 4 3 1 1 3 8 9 7 4 2 0 0
4 5 6 5 4 3 3 3 4 5 5 3 3 3 2 1 0 0 0 1 1 1 0 0 0 0 0 0 1 1 3 4 3 1 1 4 9 10 8 7 4 2 1
6 6 6 5 4 3 3 3 5 6 5 4 4 4 3 1 0 0 0 1 2 1 0 0 1 1 1 1 2 2 2 2 2 1 3 7 11 10 9 8 7 6 4
6 6 5 4 3 2 1 3 5 5 4 3 3 4 4 3 2 2 2 3 3 1 1 1 2 3 3 3 3 3 2 1 1 1 4 11 14 12 10 9 9 8 7
5 4 4 3 3 1 1 3 5 4 4 4 5 4 3 4 4 5 5 4 3 1 1 2 3 3 3 3 3 2 2 1 1 1 6 13 16 14 13 12 10 9 9
5 4 4 5 6 5 3 4 4 4 4 5 7 6 4 5 6 6 4 3 2 1 1 1 1 1 2 2 2 1 1 1 1 2 7 16 19 17 15 15 13 11 11
6 6 7 9 11 11 8 5 3 2 3 5 8 7 6 6 7 6 4 1 0 0 1 1 1 0 0 1 1 1 2 2 2 3 8 18 23 22 20 19 17 14 13
10 10 11 12 13 12 9 6 4 3 2 5 8 8 8 8 8 8 4 1 1 1 2 2 1 1 0 1 2 3 4 4 4 4 7 15 23 26 25 22 19 17 15
16 15 13 13 13 11 8 7 5 4 3 6 9 10 9 9 9 8 4 2 2 3 4 3 1 1 1 1 2 4 6 7 9 8 8 11 17 23 25 24 21 19 16
26 22 15 13 13 11 8 6 5 4 4 6 9 11 10 10 10 6 2 2 3 3 4 3 1 1 0 1 2 4 6 10 14 13 11 11 13 16 21 25 24 21 19
33 30 22 17 18 16 12 9 7 6 6 6 8 11 11 10 9 6 3 2 2 2 2 1 1 1 2 2 3 4 6 11 15 14 12 12 15 17 19 24 27 26 24
39 38 32 25 23 23 17 12 10 10 8 7 8 12 13 9 8 7 4 3 2 1 1 0 0 2 4 5 4 4 6 11 14 13 11 10 14 20 22 26 29 29 27
47 46 40 31 29 29 22 16 14 15 13 10 11 16 17 12 8 7 5 4 4 3 2 1 1 1 3 5 5 4 5 8 11 12 10 9 11 17 23 29 33 32 29
55 52 45 37 33 31 25 19 17 18 18 17 19 23 23 18 12 8 7 6 6 6 5 4 4 2 2 3 3 3 2 3 6 7 9 9 10 14 18 25 34 37 35
58 56 52 47 40 34 28 22 18 19 21 24 28 29 27 22 16 12 11 9 8 9 10 10 8 6 4 3 2 2 2 2 3 5 5 8 11 14 14 18 27 37 38
58 58 60 61 53 42 34 27 21 20 21 25 28 29 27 23 19 16 16 14 13 12 12 12 11 9 8 5 4 5 6 7 8 7 5 7 11 14 14 14 19 29 36
55 57 62 66 63 53 42 33 28 23 20 22 26 27 28 25 21 20 21 21 19 15 14 15 15 14 12 10 7 7 9 11 12 11 9 7 8 10 13 14 14 21 29
52 55 60 65 65 57 46 38 33 27 21 22 26 28 29 27 23 22 23 25 23 18 17 20 19 17 16 14 11 8 9 11 13 14 11 8 5 5 10 14 15 17 21

GEFSSE_con_prob3kmehi_252.txt.gz
EHI
5 8 11 11 10 12 12 13 16 17 17 18 19 20 18 14 9 8 10 9 5 2 1 2 2 2 2 2 4 5 5 5 5 4 3 2 2 2 2 2 1 1 3
6 8 11 11 10 11 11 11 13 13 13 14 13 13 12 9 7 7 9 9 5 1 1 1 1 1 1 1 3 5 5 5 4 3 2 1 1 2 3 2 1 0 1
7 8 11 12 11 11 10 9 9 8 7 7 6 5 5 5 5 6 8 8 4 1 0 0 0 0 1 1 3 5 5 4 3 2 1 0 1 2 4 2 1 0 0
8 8 10 13 13 12 10 9 8 6 3 2 1 1 2 4 6 5 5 5 3 1 1 1 1 1 2 3 4 4 4 3 2 1 0 0 1 2 3 2 0 0 0
8 8 10 14 14 12 11 10 9 5 2 0 0 1 1 2 5 6 5 4 3 2 2 2 2 2 3 4 4 4 3 3 2 1 0 0 0 2 3 2 1 0 0
6 6 9 13 14 12 11 12 10 5 1 0 1 2 2 1 3 6 6 5 4 3 3 3 2 2 3 4 3 3 3 3 1 0 0 0 0 2 3 3 2 1 0
5 6 9 12 14 13 12 12 10 5 1 1 2 4 3 2 3 4 5 5 3 2 2 2 1 1 2 2 2 3 3 2 1 0 0 0 1 2 4 4 2 1 0
6 6 8 10 12 13 12 10 9 5 3 2 2 3 3 3 4 3 3 3 1 1 1 1 1 2 2 1 1 2 3 2 1 0 0 0 1 4 6 5 3 1 1
6 6 6 7 8 9 10 10 9 7 5 4 3 2 3 3 3 1 1 1 0 0 0 0 1 2 2 1 1 3 3 2 0 0 0 0 3 7 8 7 5 4 3
6 6 5 5 5 4 5 7 7 6 5 4 4 4 3 3 1 0 0 0 0 0 0 0 0 1 1 1 2 4 4 2 0 0 0 1 6 10 10 9 8 7 6
5 4 3 3 3 3 2 2 2 2 3 3 3 3 2 1 0 0 0 1 1 1 1 1 2 2 2 2 2 4 3 1 0 0 0 4 10 13 12 10 9 9 8
4 3 1 1 2 2 1 0 1 1 1 2 1 1 1 0 0 0 0 1 2 2 3 3 3 3 2 1 1 1 1 0 0 0 1 7 16 19 16 12 10 9 9
4 3 1 1 1 1 1 0 1 2 2 2 1 0 0 0 0 0 0 1 1 2 2 2 2 1 1 0 0 0 0 0 0 0 2 11 21 23 19 14 10 10 10
6 4 3 3 2 1 0 0 1 2 3 3 2 0 0 0 0 0 0 0 0 1 1 0 0 0 0 0 1 1 1 0 0 0 4 13 21 23 20 15 11 10 10
7 5 4 5 5 4 2 1 1 1 1 2 2 1 1 0 0 0 0 0 0 0 0 0 0 0 0 0 1 2 1 0 0 0 3 12 21 23 21 16 12 10 9
7 6 6 7 7 6 5 3 2 1 1 1 1 2 1 0 0 0 0 0 0 0 0 0 0 0 0 0 1 1 1 0 0 0 1 7 17 23 22 18 16 14 11
7 7 7 7 6 6 6 5 4 2 1 1 1 1 1 0 0 0 0 0 0 0 0 0 0 0 0 0 0 0 0 0 0 0 0 2 8 16 20 21 21 20 18
9 8 7 7 6 6 6 6 4 3 2 2 2 1 0 0 0 0 0 0 0 0 0 0 0 0 0 0 0 0 0 0 0 0 0 1 2 6 12 19 24 25 23
12 10 8 7 6 6 6 6 4 3 2 3 4 3 1 0 0 0 0 0 0 0 0 0 0 0 0 0 0 0 0 0 0 0 0 1 1 1 4 11 18 21 21
13 12 9 7 6 7 7 7 5 3 2 3 4 3 2 1 1 0 0 0 0 0 0 0 0 0 0 0 0 1 0 0 0 0 0 1 1 0 1 5 8 11 14
14 13 10 8 7 7 7 7 6 4 2 3 3 3 3 3 2 1 1 1 0 0 0 0 0 0 0 0 0 0 0 0 0 0 0 0 0 0 1 1 1 3 5
18 16 14 12 9 8 7 7 4 2 2 2 3 3 3 4 4 3 2 1 0 0 0 0 0 0 0 0 0 0 0 0 0 0 0 0 0 1 1 1 0 0 1
24 24 22 19 15 11 9 6 4 3 2 2 2 4 5 6 6 4 2 1 0 0 0 0 0 0 0 0 0 0 0 0 0 0 0 0 0 1 2 2 1 0 0
32 30 27 24 21 16 11 8 7 7 6 3 2 4 6 8 7 4 1 0 0 0 0 0 0 0 1 1 0 0 0 0 0 0 0 0 0 1 2 2 1 1 1
36 33 30 27 24 19 15 12 10 9 8 6 4 4 4 6 6 4 1 1 1 1 1 1 1 0 1 1 0 0 0 0 0 0 0 0 0 0 1 1 1 1 2
35 34 32 29 24 20 17 15 11 9 9 8 6 3 2 4 5 4 3 2 2 2 1 2 1 0 1 1 0 0 0 0 0 0 0 0 0 0 0 0 0 1 2